Location: El Azufral
(10.3513°N, 67.1528°W)
Time: 09:32:10
(UTC+00:00)

Hubble Space Telescope - Pass Details

Date: 13 June 2024
Orbit: 509 x 513 km, 28.5° (Epoch: 19 July)

Event Time Altitude Azimuth Distance (km) Brightness Sun altitude
Rises 23:48:08 0° 268° (W) 2,612 5.4 -13.6°
Reaches altitude 10° 23:51:25 10° 239° (WSW) 1,727 3.8 -14.3°
Maximum altitude 23:53:18 13° 211° (SSW) 1,546 3.1 -14.7°
Drops below altitude 10° 23:55:11 10° 183° (S) 1,727 3.1 -15.1°
Enters shadow 23:55:35 - 178° (S) 1,806 3.2 -15.2°
